Flag for Puerto Rico Weather past 2 weeks in Ponce, Puerto Rico

Now
84 °F

Scattered clouds.


Feels Like: 91 °F
Forecast: 76 / 92 °F
Wind: 17 mph from East

Location: Aquadilla / Borinquen

Current Time: Jul 30, 2015 at 10:35:38 AM

Latest Report: Jul 30, 2015 at 9:50 AM


Visibility: 10 mi

Pressure: 30.08 "Hg

Humidity: 70%

Dew point: 73 °F

Location of PonceLocation

Historic Weather in Ponce — Graph

°F

Ponce temperature yesterday

Maximum temperature yesterday: 86 °F (at 9:50 AM)
Minimum temperature yesterday: 79 °F (at 6:50 AM)
Average temperature yesterday: 83 °F

Past Weeks' High & Low Weather Summary

 TemperatureHumidityPressure
High88 °F (Jul 15, 12:50 PM)100% (Jul 20, 7:45 PM)30.14 "Hg (Jul 20, 7:45 PM)
Low73 °F (Jul 19, 6:50 AM)55% (Jul 17, 2:50 PM)29.98 "Hg (Jul 21, 3:50 PM)
Average82 °F76%30.06 "Hg
* Reported Jul 15 8:50 AM — Jul 30 8:50 AM, Ponce, Weather by CustomWeather, © 2015

Note: Actual official high and low records may vary slightly from our data, if they occured in-between our weather recording intervals... More about our weather records

Advertising

Ponce weather history for previous 24 hours

 ConditionsComfort  
Time TempWeatherWind HumidityBarometerVisibility
8:50 AM
Thu, Jul 30
82 °FBroken clouds.15 mph74%30.08 "Hg10 mi
7:50 AM81 °FScattered clouds.3 mph74%30.08 "Hg10 mi
6:50 AM75 °FClear.6 mph83%30.07 "Hg10 mi
12:50 AM79 °FClear.9 mph79%30.06 "Hg10 mi
11:50 PM
Wed, Jul 29
81 °FPassing clouds.15 mph79%30.07 "Hg10 mi
10:50 PM81 °FPassing clouds.17 mph79%30.06 "Hg10 mi
8:50 PM81 °FPartly cloudy.14 mph79%30.05 "Hg10 mi
7:50 PM81 °FPartly sunny.1 mph79%30.07 "Hg10 mi
6:50 PM82 °FPartly sunny.16 mph79%30.01 "Hg10 mi
5:50 PM82 °FBroken clouds.15 mph74%30.00 "Hg10 mi
4:50 PM84 °FBroken clouds.16 mph70%29.99 "Hg10 mi
3:50 PM86 °FScattered clouds.14 mph70%30.00 "Hg10 mi
2:50 PM86 °FScattered clouds.18 mph70%30.02 "Hg10 mi
1:50 PM84 °FSunny.18 mph74%30.03 "Hg10 mi
12:50 PM86 °FPassing clouds.14 mph66%30.05 "Hg10 mi
11:50 AM86 °FPassing clouds.17 mph66%30.07 "Hg10 mi
10:50 AM86 °FPassing clouds.10 mph66%30.07 "Hg10 mi
Weather by CustomWeather, © 2015

See weather overviewHow to use our weather pages